Miscellaneous Local Product
Issued by NWS Hastings, NE

Home | Current Version | Previous Version | Text Only | Print | Product List | Glossary Off
Versions: 1 2 3 4 5 6 7 8 9 10 11 12 13 14 15 16 17 18 19 20 21 22 23 24 25 26 27 28 29 30 31 32 33 34 35 36 37 38 39 40 41 42 43 44 45 46 47 48 49 50

000
AXUS43 KGID 280102
MISGRI

GID CWA HOURLY WEATHER ROUNDUP
NATIONAL WEATHER SERVICE HASTINGS NE
700 PM CST SAT DEC 27 2014

NOTE: "FAIR" INDICATES FEW OR NO CLOUDS BELOW 12,000 FEET WITH NO
SIGNIFICANT WEATHER AND/OR OBSTRUCTIONS TO VISIBILITY.

...SOUTH CENTRAL NEBRASKA...

CITY           SKY/WX    TMP DP  RH WIND       PRES   REMARKS
GRAND ISLAND   CLEAR     15  10  80 SW9       30.22S WCI   3
HASTINGS       CLEAR     18  13  80 SW5       30.21R WCI  11
KEARNEY        CLEAR     16  12  86 S5        30.20S WCI   9
ORD            CLEAR     14   9  80 CALM      30.16F
YORK           CLEAR     16  10  79 W7        30.23S WCI   6
AURORA         CLEAR     16  13  89 SW6       30.22S WCI   7
LEXINGTON      CLEAR     15  12  86 SW5       30.18S WCI   8
HOLDREGE       CLEAR     19  14  80 W7        30.20S WCI  10
HEBRON         CLEAR     20  14  77 SW5       30.26S WCI  13

...NEBRASKA PANHANDLE...

CITY           SKY/WX    TMP DP  RH WIND       PRES   REMARKS
CHADRON        PTCLDY     8   2  76 SW8       30.08R WCI  -4
ALLIANCE       PTCLDY     2  -2  83 W8        30.08R WCI -12
SCOTTSBLUFF    PTCLDY    12   7  80 NW3       30.09S
SIDNEY         PTCLDY     8   1  73 W10       30.10S WCI  -6

...WESTERN AND NORTH CENTRAL NEBRASKA...

CITY           SKY/WX    TMP DP  RH WIND       PRES   REMARKS
VALENTINE      PTCLDY    13   9  84 SW6       30.09S WCI   4
AINSWORTH      CLEAR     13   9  81 SW9       30.10S WCI   1
ONEILL         CLEAR      9   8  95 SW6       30.14F WCI   0
BROKEN BOW     CLEAR     14  10  84 CALM      30.15S
IMPERIAL       CLEAR     13   7  77 W7        30.16S WCI   3
NORTH PLATTE   CLEAR      9   6  88 CALM      30.16S
MCCOOK         CLEAR     16  11  80 SW6       30.20R WCI   7

...EASTERN NEBRASKA...

CITY           SKY/WX    TMP DP  RH WIND       PRES   REMARKS
NORFOLK        CLEAR     11   8  88 SW7       30.19S WCI   0
SO SIOUX CITY  CLEAR     12   9  87 SW5       30.23S WCI   4
TEKAMAH        CLEAR     15  10  80 SW5       30.24F WCI   8
COLUMBUS       CLEAR     19  10  68 SW3       30.23S
ALBION         CLEAR     15  10  80 CALM      30.19F
OMAHA EPPLEY   CLEAR     22  14  71 CALM      30.26S
OFFUTT AFB     CLEAR     19  13  80 W3        30.24F
MILLARD        CLEAR     22  16  79 CALM      30.25S
LINCOLN        CLEAR     20  16  84 CALM      30.26F
NEBRASKA CITY  CLEAR     22  16  76 W5        30.25S WCI  16
BEATRICE       FAIR      20  16  82 W3        30.25S
FALLS CITY     CLEAR     25  19  78 W7        30.26S WCI  17

...NORTHERN KANSAS...

CITY           SKY/WX    TMP DP  RH WIND       PRES   REMARKS
GOODLAND       CLEAR     16   9  74 SW8       30.17S WCI   5
HILL CITY      CLEAR     18  13  80 W5        30.24S WCI  11
NORTON         CLEAR     16  10  79 SW7       30.21S WCI   6
PHILLIPSBURG   CLEAR     21  16  79 CALM      30.25S
BELOIT         CLEAR     21  16  79 CALM      30.27S
HAYS           CLEAR     21   9  58 W5        30.24F WCI  15
RUSSELL        CLEAR     24  17  74 W3        30.24S
CONCORDIA      CLEAR     22  15  75 SW5       30.26S WCI  16
SALINA         CLEAR     25  16  68 W3        30.29S
TOPEKA         CLEAR     28  18  66 W3        30.29R



USA.gov is the U.S. government's official web portal to all federal, state and local government web resources and services.